THA620 VTBS-RPLL

Flight info

Callsign THA620
Flight time 3h 0m
Altitude 37000
Route DOSBU1G DOSBU G474 OMURO L880 VEMKO G474 ANINA/K0846F390 G474 PCA L628 MESOX/N0455F390 L628 ARESI/N0452F370 L628 GUKUM W23 ZULUR DCT OLONG OLONG1A
Aircraft A333/H-SDE3GHIJ2J3J5M1RVWXY/LB2D1

Departure

Time 2026-05-06 12:16
Airport Suvarnabhumi Airport (VTBS)

Arrival

Time 2026-05-06 15:16
Airport Ninoy Aquino International Airport (RPLL)
Time Latitude Longitude Altitude Speed Heading
2026-05-06 12:00 13.69240 100.74427 12 ft 0 kts 14°
2026-05-06 12:06 13.69229 100.74424 15 ft 0 kts 12°
2026-05-06 12:07 13.69219 100.74422 13 ft 2 kts 11°
2026-05-06 12:07 13.69202 100.74419 0 ft 2 kts
2026-05-06 12:07 13.69186 100.74417 -7 ft 2 kts
2026-05-06 12:07 13.69170 100.74417 17 ft 2 kts 354°
2026-05-06 12:08 13.69154 100.74421 14 ft 2 kts 322°
2026-05-06 12:08 13.69145 100.74433 14 ft 1 kts 284°
2026-05-06 12:08 13.69144 100.74437 14 ft 0 kts 282°
2026-05-06 12:10 13.69145 100.74430 14 ft 2 kts 282°
2026-05-06 12:10 13.69150 100.74409 14 ft 4 kts 282°
2026-05-06 12:10 13.69158 100.74370 12 ft 7 kts 282°
2026-05-06 12:10 13.69168 100.74319 12 ft 8 kts 282°
2026-05-06 12:11 13.69199 100.74241 12 ft 15 kts 304°
2026-05-06 12:11 13.69251 100.74220 12 ft 6 kts
2026-05-06 12:11 13.69298 100.74229 11 ft 7 kts 14°
2026-05-06 12:11 13.69353 100.74244 11 ft 9 kts 15°
2026-05-06 12:12 13.69420 100.74262 12 ft 11 kts 15°
2026-05-06 12:12 13.69498 100.74284 11 ft 12 kts 14°
2026-05-06 12:12 13.69586 100.74307 11 ft 14 kts 14°
2026-05-06 12:12 13.69684 100.74330 11 ft 15 kts 13°
2026-05-06 12:13 13.69788 100.74356 11 ft 16 kts 14°
2026-05-06 12:13 13.69911 100.74389 11 ft 20 kts 14°
2026-05-06 12:13 13.70050 100.74426 12 ft 21 kts 14°
2026-05-06 12:13 13.70194 100.74464 12 ft 22 kts 14°
2026-05-06 12:14 13.70328 100.74434 12 ft 20 kts 302°
2026-05-06 12:14 13.70317 100.74314 13 ft 16 kts 227°
2026-05-06 12:14 13.70288 100.74298 13 ft 1 kts 198°
2026-05-06 12:14 13.70286 100.74298 13 ft 0 kts 198°
2026-05-06 12:15 13.70193 100.74268 13 ft 41 kts 196°
2026-05-06 12:15 13.69706 100.74150 10 ft 102 kts 193°
2026-05-06 12:15 13.68841 100.73946 15 ft 152 kts 193°
2026-05-06 12:15 13.67739 100.73670 477 ft 169 kts 194°
2026-05-06 12:16 13.66562 100.73340 1037 ft 183 kts 195°
2026-05-06 12:16 13.65309 100.72961 1571 ft 188 kts 195°
2026-05-06 12:16 13.64015 100.72612 1723 ft 197 kts 193°
2026-05-06 12:16 13.62606 100.72254 1934 ft 223 kts 193°
2026-05-06 12:17 13.61014 100.71847 2333 ft 245 kts 193°
2026-05-06 12:17 13.59321 100.71408 2924 ft 257 kts 193°
2026-05-06 12:17 13.57557 100.70947 3535 ft 266 kts 193°
2026-05-06 12:17 13.55770 100.70385 4223 ft 272 kts 202°
2026-05-06 12:18 13.54220 100.69238 4920 ft 281 kts 229°
2026-05-06 12:18 13.53344 100.67458 5464 ft 283 kts 257°
2026-05-06 12:18 13.53367 100.65435 5707 ft 288 kts 280°
2026-05-06 12:18 13.53668 100.64075 5740 ft 289 kts 284°
2026-05-06 12:19 13.54378 100.61434 5742 ft 289 kts 286°
2026-05-06 12:19 13.54811 100.60116 5742 ft 288 kts 294°
2026-05-06 12:19 13.56431 100.58024 5755 ft 284 kts 328°
2026-05-06 12:19 13.57631 100.57448 5924 ft 282 kts 346°
2026-05-06 12:20 13.59560 100.57229 6408 ft 286 kts
2026-05-06 12:20 13.61584 100.57269 7174 ft 288 kts
2026-05-06 12:20 13.63592 100.57341 8006 ft 289 kts
2026-05-06 12:20 13.65592 100.57568 8821 ft 290 kts 15°
2026-05-06 12:21 13.67392 100.58405 9603 ft 286 kts 35°
2026-05-06 12:21 13.68978 100.59657 10084 ft 300 kts 40°
2026-05-06 12:21 13.70620 100.61092 10385 ft 320 kts 41°
2026-05-06 12:21 13.72357 100.62618 10721 ft 336 kts 41°
2026-05-06 12:22 13.74038 100.64323 11289 ft 343 kts 53°
2026-05-06 12:22 13.75167 100.66481 11946 ft 346 kts 73°
2026-05-06 12:22 13.75513 100.68933 12642 ft 349 kts 88°
2026-05-06 12:22 13.75529 100.71434 13362 ft 352 kts 90°
2026-05-06 12:23 13.75496 100.73974 13948 ft 358 kts 90°
2026-05-06 12:23 13.75466 100.76542 14536 ft 361 kts 90°
2026-05-06 12:23 13.75444 100.79134 15138 ft 364 kts 89°
2026-05-06 12:23 13.75428 100.81757 15617 ft 367 kts 89°
2026-05-06 12:24 13.75414 100.84391 15793 ft 369 kts 89°
2026-05-06 12:24 13.75402 100.87032 15829 ft 370 kts 89°
2026-05-06 12:24 13.75391 100.89681 15825 ft 371 kts 89°
2026-05-06 12:24 13.75380 100.92338 15823 ft 371 kts 89°
2026-05-06 12:25 13.75369 100.94991 15824 ft 371 kts 89°
2026-05-06 12:25 13.75358 100.97645 15822 ft 371 kts 89°
2026-05-06 12:25 13.75347 101.00299 15821 ft 371 kts 89°
2026-05-06 12:25 13.75335 101.02959 15978 ft 373 kts 89°
2026-05-06 12:26 13.75324 101.05638 16516 ft 376 kts 89°
2026-05-06 12:26 13.75311 101.08331 17150 ft 378 kts 89°
2026-05-06 12:26 13.75299 101.11040 17753 ft 381 kts 89°
2026-05-06 12:26 13.75286 101.13780 18298 ft 384 kts 89°
2026-05-06 12:27 13.75273 101.16540 18777 ft 388 kts 89°
2026-05-06 12:27 13.75259 101.19287 19250 ft 391 kts 89°
2026-05-06 12:27 13.75285 101.22086 19728 ft 393 kts 85°
2026-05-06 12:27 13.75623 101.24885 20202 ft 395 kts 78°
2026-05-06 12:28 13.76169 101.27661 20665 ft 398 kts 77°
2026-05-06 12:28 13.76757 101.30449 21137 ft 401 kts 77°
2026-05-06 12:28 13.77354 101.33261 21578 ft 404 kts 77°
2026-05-06 12:28 13.77953 101.36100 22019 ft 407 kts 77°
2026-05-06 12:29 13.78552 101.38951 22490 ft 410 kts 77°
2026-05-06 12:29 13.79154 101.41830 22930 ft 413 kts 77°
2026-05-06 12:29 13.79760 101.44728 23368 ft 416 kts 77°
2026-05-06 12:29 13.80368 101.47643 23731 ft 418 kts 77°
2026-05-06 12:30 13.80980 101.50580 24079 ft 421 kts 77°
2026-05-06 12:30 13.81595 101.53533 24457 ft 424 kts 77°
2026-05-06 12:30 13.82214 101.56508 24806 ft 426 kts 77°
2026-05-06 12:30 13.82836 101.59500 25179 ft 429 kts 77°
2026-05-06 12:31 13.83460 101.62505 25530 ft 431 kts 77°
2026-05-06 12:31 13.84089 101.65533 25861 ft 434 kts 77°
2026-05-06 12:31 13.84720 101.68576 26227 ft 436 kts 77°
2026-05-06 12:31 13.85357 101.71647 26513 ft 440 kts 77°
2026-05-06 12:32 13.85997 101.74733 26872 ft 442 kts 77°
2026-05-06 12:32 13.86639 101.77837 27218 ft 445 kts 77°
2026-05-06 12:32 13.87280 101.80961 27560 ft 447 kts 78°
2026-05-06 12:32 13.87694 101.84138 27900 ft 450 kts 86°
2026-05-06 12:33 13.87800 101.87362 28231 ft 453 kts 89°
2026-05-06 12:33 13.87792 101.90613 28562 ft 456 kts 90°
2026-05-06 12:33 13.87728 101.93880 28885 ft 458 kts 91°
2026-05-06 12:33 13.87644 101.97169 29197 ft 461 kts 91°
2026-05-06 12:34 13.87559 102.00475 29511 ft 463 kts 91°
2026-05-06 12:34 13.87483 102.03791 29821 ft 466 kts 90°
2026-05-06 12:34 13.87416 102.07086 30123 ft 467 kts 90°
2026-05-06 12:34 13.87355 102.10481 30399 ft 469 kts 90°
2026-05-06 12:35 13.87298 102.13849 30654 ft 472 kts 90°
2026-05-06 12:35 13.87243 102.17229 30906 ft 474 kts 90°
2026-05-06 12:35 13.87187 102.20628 31170 ft 476 kts 90°
2026-05-06 12:35 13.87132 102.23993 31420 ft 478 kts 90°
2026-05-06 12:36 13.87075 102.27419 31680 ft 480 kts 90°
2026-05-06 12:36 13.87017 102.30862 31929 ft 482 kts 90°
2026-05-06 12:36 13.86958 102.34312 32243 ft 482 kts 90°
2026-05-06 12:36 13.86898 102.37759 32621 ft 481 kts 90°
2026-05-06 12:37 13.86837 102.41199 32976 ft 481 kts 90°
2026-05-06 12:37 13.86777 102.44628 33412 ft 478 kts 90°
2026-05-06 12:37 13.86716 102.48023 33790 ft 477 kts 90°
2026-05-06 12:37 13.86655 102.51436 34092 ft 477 kts 90°
2026-05-06 12:38 13.86593 102.54851 34368 ft 477 kts 90°
2026-05-06 12:38 13.86531 102.58264 34629 ft 477 kts 91°
2026-05-06 12:38 13.86468 102.61674 34934 ft 477 kts 91°
2026-05-06 12:38 13.86405 102.65087 35180 ft 477 kts 91°
2026-05-06 12:39 13.86342 102.68501 35496 ft 476 kts 91°
2026-05-06 12:39 13.86278 102.71906 35766 ft 476 kts 91°
2026-05-06 12:39 13.86214 102.75309 36046 ft 476 kts 91°
2026-05-06 12:39 13.86149 102.78715 36340 ft 475 kts 91°
2026-05-06 12:40 13.86084 102.82113 36612 ft 475 kts 91°
2026-05-06 12:40 13.86018 102.85512 36797 ft 475 kts 91°
2026-05-06 12:40 13.85887 102.92209 36829 ft 463 kts 91°
2026-05-06 12:41 13.85757 102.98800 36831 ft 462 kts 91°
2026-05-06 12:41 13.85624 103.05394 36831 ft 462 kts 91°
2026-05-06 12:42 13.85490 103.12009 36832 ft 462 kts 91°
2026-05-06 12:42 13.85354 103.18599 36832 ft 462 kts 91°
2026-05-06 12:43 13.85216 103.25205 36830 ft 461 kts 91°
2026-05-06 12:43 13.85076 103.31795 36831 ft 460 kts 91°
2026-05-06 12:44 13.84936 103.38360 36833 ft 459 kts 91°
2026-05-06 12:44 13.84794 103.44934 36834 ft 459 kts 91°
2026-05-06 12:45 13.84650 103.51483 36837 ft 459 kts 91°
2026-05-06 12:46 13.84432 103.61286 36834 ft 459 kts 91°
2026-05-06 12:46 13.84283 103.67848 36836 ft 459 kts 91°
2026-05-06 12:47 13.84133 103.74411 36835 ft 460 kts 91°
2026-05-06 12:47 13.83978 103.81082 36843 ft 473 kts 91°
2026-05-06 12:48 13.83818 103.87931 36843 ft 485 kts 91°
2026-05-06 12:48 13.83652 103.94915 36838 ft 489 kts 91°
2026-05-06 12:49 13.83485 104.01912 36839 ft 489 kts 91°
2026-05-06 12:49 13.83315 104.08906 36837 ft 489 kts 92°
2026-05-06 12:50 13.83143 104.15887 36840 ft 489 kts 92°
2026-05-06 12:50 13.82969 104.22871 36837 ft 489 kts 92°
2026-05-06 12:51 13.82793 104.29879 36837 ft 491 kts 92°
2026-05-06 12:51 13.82614 104.36902 36838 ft 491 kts 92°
2026-05-06 12:52 13.82434 104.43923 36837 ft 491 kts 92°
2026-05-06 12:52 13.82251 104.50949 36838 ft 491 kts 92°
2026-05-06 12:53 13.82068 104.57920 36836 ft 491 kts 92°
2026-05-06 12:53 13.81881 104.64944 36838 ft 491 kts 92°
2026-05-06 12:54 13.81692 104.71964 36838 ft 491 kts 92°
2026-05-06 12:54 13.81502 104.78980 36838 ft 491 kts 92°
2026-05-06 12:55 13.81309 104.86010 36838 ft 491 kts 92°
2026-05-06 12:55 13.81114 104.93035 36842 ft 491 kts 92°
2026-05-06 12:56 13.80918 105.00059 36841 ft 493 kts 92°
2026-05-06 12:56 13.80718 105.07107 36841 ft 493 kts 92°
2026-05-06 12:57 13.80517 105.14161 36837 ft 493 kts 92°
2026-05-06 12:57 13.80313 105.21214 36840 ft 493 kts 92°
2026-05-06 12:58 13.80108 105.28264 36845 ft 493 kts 92°
2026-05-06 12:58 13.79900 105.35307 36841 ft 492 kts 92°
2026-05-06 12:59 13.79692 105.42326 36842 ft 491 kts 92°
2026-05-06 12:59 13.79481 105.49355 36841 ft 491 kts 92°
2026-05-06 13:00 13.79267 105.56383 36845 ft 491 kts 92°
2026-05-06 13:00 13.79053 105.63407 36844 ft 492 kts 92°
2026-05-06 13:01 13.78835 105.70434 36846 ft 490 kts 92°
2026-05-06 13:01 13.78619 105.77379 36846 ft 489 kts 92°
2026-05-06 13:02 13.78399 105.84355 36847 ft 489 kts 92°
2026-05-06 13:02 13.78177 105.91347 36846 ft 489 kts 92°
2026-05-06 13:03 13.77953 105.98336 36843 ft 489 kts 92°
2026-05-06 13:03 13.77727 106.05329 36841 ft 489 kts 92°
2026-05-06 13:04 13.77917 106.12306 36840 ft 489 kts 83°
2026-05-06 13:04 13.78891 106.19236 36839 ft 489 kts 81°
2026-05-06 13:05 13.80013 106.26141 36839 ft 490 kts 80°
2026-05-06 13:05 13.81150 106.33047 36839 ft 490 kts 80°
2026-05-06 13:06 13.82269 106.39948 36842 ft 490 kts 81°
2026-05-06 13:06 13.83377 106.46865 36843 ft 490 kts 81°
2026-05-06 13:07 13.84479 106.53776 36844 ft 490 kts 81°
2026-05-06 13:07 13.85394 106.59524 36843 ft 490 kts 81°
2026-05-06 13:08 13.86493 106.66432 36843 ft 490 kts 81°
2026-05-06 13:08 13.87591 106.73344 36845 ft 490 kts 81°
2026-05-06 13:09 13.88688 106.80264 36855 ft 490 kts 81°
2026-05-06 13:09 13.89783 106.87185 36854 ft 491 kts 81°
2026-05-06 13:10 13.90876 106.94109 36862 ft 491 kts 81°
2026-05-06 13:10 13.91969 107.01043 36862 ft 491 kts 81°
2026-05-06 13:11 13.93059 107.07974 36866 ft 491 kts 81°
2026-05-06 13:11 13.94150 107.14922 36866 ft 492 kts 81°
2026-05-06 13:12 13.95239 107.21874 36876 ft 492 kts 81°
2026-05-06 13:12 13.96326 107.28824 36871 ft 492 kts 81°
2026-05-06 13:13 13.97409 107.35768 36878 ft 492 kts 81°
2026-05-06 13:13 13.98297 107.42745 36879 ft 492 kts 85°
2026-05-06 13:14 13.98666 107.49781 36889 ft 492 kts 87°
2026-05-06 13:14 13.98931 107.56778 36888 ft 492 kts 87°
2026-05-06 13:15 13.99183 107.63864 36907 ft 492 kts 87°
2026-05-06 13:15 13.99439 107.70863 36906 ft 492 kts 87°
2026-05-06 13:16 13.99700 107.77905 36921 ft 492 kts 87°
2026-05-06 13:16 13.99962 107.84949 36920 ft 493 kts 87°
2026-05-06 13:17 14.00221 107.91991 36927 ft 493 kts 87°
2026-05-06 13:17 14.00478 107.99045 36926 ft 492 kts 87°
2026-05-06 13:18 14.00555 108.06092 36939 ft 493 kts 91°
2026-05-06 13:18 14.00216 108.13137 36939 ft 493 kts 93°
2026-05-06 13:19 13.99810 108.20184 36944 ft 493 kts 92°
2026-05-06 13:19 13.99446 108.27230 36943 ft 493 kts 92°
2026-05-06 13:20 13.99111 108.34278 36942 ft 493 kts 92°
2026-05-06 13:20 13.98782 108.41326 36941 ft 493 kts 92°
2026-05-06 13:21 13.98450 108.48381 36943 ft 493 kts 92°
2026-05-06 13:21 13.98113 108.55439 36945 ft 494 kts 92°
2026-05-06 13:22 13.97774 108.62498 36942 ft 494 kts 92°
2026-05-06 13:22 13.97434 108.69514 36940 ft 494 kts 92°
2026-05-06 13:23 13.97091 108.76573 36938 ft 494 kts 92°
2026-05-06 13:23 13.96745 108.83637 36935 ft 494 kts 92°
2026-05-06 13:24 13.96397 108.90714 36926 ft 495 kts 92°
2026-05-06 13:24 13.96047 108.97787 36926 ft 495 kts 92°
2026-05-06 13:25 13.95715 109.04865 36920 ft 495 kts 91°
2026-05-06 13:25 13.95708 109.11941 36920 ft 495 kts 89°
2026-05-06 13:26 13.95845 109.19022 36913 ft 495 kts 88°
2026-05-06 13:26 13.95966 109.26106 36909 ft 495 kts 89°
2026-05-06 13:27 13.96055 109.33189 36909 ft 495 kts 89°
2026-05-06 13:27 13.96129 109.40277 36908 ft 495 kts 89°
2026-05-06 13:28 13.96199 109.47360 36908 ft 495 kts 89°
2026-05-06 13:28 13.96269 109.54449 36905 ft 495 kts 89°
2026-05-06 13:29 13.96335 109.61541 36907 ft 496 kts 89°
2026-05-06 13:29 13.96399 109.68631 36907 ft 496 kts 89°
2026-05-06 13:30 13.96462 109.75732 36908 ft 496 kts 89°
2026-05-06 13:30 13.96522 109.82830 36910 ft 496 kts 89°
2026-05-06 13:31 13.96580 109.89926 36908 ft 496 kts 89°
2026-05-06 13:31 13.96637 109.97031 36907 ft 496 kts 89°
2026-05-06 13:32 13.96700 110.04132 36906 ft 496 kts 89°
2026-05-06 13:32 13.96776 110.11235 36908 ft 496 kts 89°
2026-05-06 13:33 13.96852 110.18341 36908 ft 496 kts 89°
2026-05-06 13:33 13.96924 110.25452 36909 ft 497 kts 89°
2026-05-06 13:34 13.96993 110.32558 36910 ft 497 kts 89°
2026-05-06 13:34 13.97060 110.39674 36909 ft 497 kts 89°
2026-05-06 13:35 13.97125 110.46788 36907 ft 497 kts 89°
2026-05-06 13:35 13.97188 110.53897 36907 ft 497 kts 89°
2026-05-06 13:36 13.97248 110.61006 36910 ft 497 kts 89°
2026-05-06 13:36 13.97307 110.68118 36910 ft 497 kts 89°
2026-05-06 13:37 13.97363 110.75237 36915 ft 497 kts 89°
2026-05-06 13:37 13.97418 110.82349 36913 ft 497 kts 89°
2026-05-06 13:38 13.97470 110.89416 36912 ft 497 kts 89°
2026-05-06 13:38 13.97520 110.96532 36911 ft 497 kts 89°
2026-05-06 13:39 13.97568 111.03652 36911 ft 497 kts 89°
2026-05-06 13:39 13.97614 111.10772 36913 ft 497 kts 89°
2026-05-06 13:40 13.97658 111.17898 36913 ft 498 kts 89°
2026-05-06 13:40 13.97700 111.25044 36915 ft 500 kts 89°
2026-05-06 13:41 13.97739 111.32203 36911 ft 500 kts 89°
2026-05-06 13:41 13.97777 111.39365 36912 ft 500 kts 89°
2026-05-06 13:42 13.97812 111.46521 36914 ft 500 kts 89°
2026-05-06 13:42 13.97845 111.53680 36914 ft 500 kts 89°
2026-05-06 13:43 13.97873 111.60841 36916 ft 500 kts 89°
2026-05-06 13:43 13.97898 111.68000 36918 ft 500 kts 89°
2026-05-06 13:44 13.97921 111.75141 36916 ft 500 kts 89°
2026-05-06 13:44 13.97943 111.82304 36916 ft 500 kts 89°
2026-05-06 13:45 13.97962 111.89459 36916 ft 501 kts 89°
2026-05-06 13:45 13.97988 112.00222 36918 ft 501 kts 89°
2026-05-06 13:46 13.98002 112.07394 36916 ft 501 kts 89°
2026-05-06 13:46 13.98014 112.14564 36917 ft 501 kts 89°
2026-05-06 13:47 13.98024 112.21691 36916 ft 501 kts 89°
2026-05-06 13:47 13.98032 112.28868 36916 ft 501 kts 89°
2026-05-06 13:48 13.98038 112.36048 36922 ft 501 kts 89°
2026-05-06 13:48 13.98042 112.43227 36922 ft 501 kts 89°
2026-05-06 13:49 13.98044 112.50408 36919 ft 501 kts 89°
2026-05-06 13:49 13.98045 112.57578 36919 ft 501 kts 89°
2026-05-06 13:50 13.98043 112.64745 36919 ft 501 kts 89°
2026-05-06 13:50 13.98040 112.71917 36923 ft 501 kts 89°
2026-05-06 13:51 13.98034 112.79084 36927 ft 501 kts 89°
2026-05-06 13:51 13.98026 112.86250 36922 ft 500 kts 89°
2026-05-06 13:52 13.98016 112.93400 36922 ft 500 kts 89°
2026-05-06 13:52 13.98005 113.00551 36920 ft 500 kts 89°
2026-05-06 13:53 13.97991 113.07689 36922 ft 500 kts 89°
2026-05-06 13:53 13.97976 113.14794 36922 ft 499 kts 89°
2026-05-06 13:54 13.97959 113.21937 36927 ft 499 kts 89°
2026-05-06 13:54 13.97940 113.29087 36925 ft 499 kts 89°
2026-05-06 13:55 13.97919 113.36230 36922 ft 499 kts 89°
2026-05-06 13:55 13.97896 113.43376 36927 ft 499 kts 89°
2026-05-06 13:56 13.97875 113.49359 36929 ft 498 kts 89°
2026-05-06 13:56 13.97848 113.56484 36926 ft 498 kts 89°
2026-05-06 13:57 13.97818 113.63615 36927 ft 498 kts 89°
2026-05-06 13:57 13.97786 113.70749 36926 ft 498 kts 89°
2026-05-06 13:58 13.97753 113.77877 36928 ft 498 kts 89°
2026-05-06 13:58 13.97717 113.84950 36929 ft 497 kts 89°
2026-05-06 13:59 13.97679 113.92063 36925 ft 497 kts 89°
2026-05-06 13:59 13.97639 113.99173 36927 ft 497 kts 89°
2026-05-06 14:00 13.97597 114.06283 36929 ft 497 kts 89°
2026-05-06 14:00 13.97553 114.13397 36931 ft 496 kts 89°
2026-05-06 14:01 13.97506 114.20489 36926 ft 495 kts 89°
2026-05-06 14:01 13.97458 114.27579 36932 ft 495 kts 89°
2026-05-06 14:02 13.97407 114.34675 36932 ft 495 kts 89°
2026-05-06 14:02 13.97355 114.41765 36934 ft 495 kts 89°
2026-05-06 14:03 13.97705 114.48825 36929 ft 493 kts 84°
2026-05-06 14:03 13.98332 114.55846 36925 ft 493 kts 83°
2026-05-06 14:04 13.99011 114.62874 36928 ft 493 kts 83°
2026-05-06 14:04 13.99686 114.69901 36926 ft 493 kts 83°
2026-05-06 14:05 14.00352 114.76934 36926 ft 493 kts 83°
2026-05-06 14:05 14.01012 114.83968 36925 ft 493 kts 83°
2026-05-06 14:06 14.01668 114.91001 36924 ft 493 kts 83°
2026-05-06 14:06 14.02319 114.97985 36923 ft 493 kts 83°
2026-05-06 14:07 14.02972 115.05021 36924 ft 493 kts 83°
2026-05-06 14:07 14.03622 115.12038 36924 ft 492 kts 83°
2026-05-06 14:08 14.04270 115.19054 36927 ft 492 kts 83°
2026-05-06 14:08 14.04916 115.26067 36925 ft 492 kts 84°
2026-05-06 14:09 14.05561 115.33089 36926 ft 492 kts 84°
2026-05-06 14:09 14.06202 115.40100 36927 ft 492 kts 84°
2026-05-06 14:10 14.06841 115.47105 36924 ft 491 kts 84°
2026-05-06 14:10 14.07477 115.54110 36926 ft 491 kts 84°
2026-05-06 14:11 14.08111 115.61119 36929 ft 491 kts 84°
2026-05-06 14:11 14.08743 115.68123 36928 ft 491 kts 84°
2026-05-06 14:12 14.09373 115.75125 36924 ft 491 kts 84°
2026-05-06 14:12 14.10001 115.82124 36925 ft 491 kts 84°
2026-05-06 14:13 14.10625 115.89111 36926 ft 491 kts 84°
2026-05-06 14:13 14.11248 115.96107 36926 ft 491 kts 84°
2026-05-06 14:14 14.11869 116.03107 36927 ft 490 kts 84°
2026-05-06 14:14 14.12488 116.10100 36926 ft 490 kts 84°
2026-05-06 14:15 14.13105 116.17098 36928 ft 490 kts 84°
2026-05-06 14:15 14.13720 116.24098 36929 ft 491 kts 84°
2026-05-06 14:16 14.14333 116.31094 36921 ft 490 kts 84°
2026-05-06 14:16 14.14939 116.38036 36923 ft 489 kts 84°
2026-05-06 14:17 14.15547 116.45023 36922 ft 489 kts 84°
2026-05-06 14:17 14.16153 116.52008 36921 ft 489 kts 84°
2026-05-06 14:18 14.16756 116.58989 36922 ft 489 kts 84°
2026-05-06 14:18 14.17358 116.65975 36922 ft 489 kts 84°
2026-05-06 14:19 14.17957 116.72960 36926 ft 489 kts 84°
2026-05-06 14:19 14.18554 116.79944 36926 ft 489 kts 84°
2026-05-06 14:20 14.19150 116.86926 36925 ft 489 kts 84°
2026-05-06 14:20 14.19823 116.93899 36922 ft 489 kts 82°
2026-05-06 14:21 14.20870 117.00824 36925 ft 489 kts 79°
2026-05-06 14:21 14.22013 117.07726 36924 ft 489 kts 80°
2026-05-06 14:22 14.23127 117.14641 36923 ft 489 kts 80°
2026-05-06 14:22 14.24209 117.21554 36923 ft 489 kts 80°
2026-05-06 14:23 14.25280 117.28484 36921 ft 489 kts 80°
2026-05-06 14:23 14.26349 117.35411 36919 ft 489 kts 80°
2026-05-06 14:24 14.27416 117.42334 36923 ft 489 kts 80°
2026-05-06 14:24 14.28483 117.49264 36926 ft 489 kts 80°
2026-05-06 14:25 14.29549 117.56196 36923 ft 490 kts 80°
2026-05-06 14:25 14.30613 117.63135 36921 ft 490 kts 80°
2026-05-06 14:26 14.31668 117.70022 36923 ft 490 kts 81°
2026-05-06 14:26 14.32726 117.76947 36921 ft 490 kts 81°
2026-05-06 14:27 14.33784 117.83885 36923 ft 490 kts 81°
2026-05-06 14:27 14.34840 117.90828 36922 ft 490 kts 81°
2026-05-06 14:28 14.35894 117.97765 36919 ft 490 kts 81°
2026-05-06 14:28 14.36946 118.04705 36919 ft 490 kts 81°
2026-05-06 14:29 14.37996 118.11649 36923 ft 490 kts 81°
2026-05-06 14:29 14.39045 118.18599 36922 ft 490 kts 81°
2026-05-06 14:30 14.40092 118.25550 36925 ft 491 kts 81°
2026-05-06 14:30 14.41138 118.32503 36923 ft 491 kts 81°
2026-05-06 14:31 14.42181 118.39458 36918 ft 491 kts 81°
2026-05-06 14:31 14.43223 118.46418 36920 ft 491 kts 81°
2026-05-06 14:32 14.44264 118.53384 36924 ft 491 kts 81°
2026-05-06 14:32 14.45303 118.60355 36923 ft 491 kts 81°
2026-05-06 14:33 14.46339 118.67319 36919 ft 491 kts 81°
2026-05-06 14:33 14.47374 118.74286 36920 ft 492 kts 81°
2026-05-06 14:34 14.48400 118.81213 36923 ft 492 kts 81°
2026-05-06 14:34 14.49432 118.88188 36925 ft 492 kts 81°
2026-05-06 14:35 14.50461 118.95163 36917 ft 492 kts 81°
2026-05-06 14:35 14.51489 119.02141 36911 ft 492 kts 81°
2026-05-06 14:36 14.52517 119.09138 36915 ft 493 kts 81°
2026-05-06 14:36 14.53542 119.16131 36916 ft 493 kts 81°
2026-05-06 14:37 14.54565 119.23123 36923 ft 493 kts 81°
2026-05-06 14:37 14.55588 119.30124 36922 ft 493 kts 81°
2026-05-06 14:38 14.56607 119.37121 36714 ft 493 kts 81°
2026-05-06 14:38 14.57118 119.40632 36098 ft 494 kts 81°
2026-05-06 14:38 14.57625 119.44128 35534 ft 492 kts 81°
2026-05-06 14:39 14.58132 119.47620 34951 ft 492 kts 81°
2026-05-06 14:39 14.58638 119.51108 34320 ft 492 kts 81°
2026-05-06 14:39 14.59145 119.54610 33630 ft 493 kts 82°
2026-05-06 14:39 14.59651 119.58111 32858 ft 495 kts 82°
2026-05-06 14:40 14.60160 119.61631 32085 ft 496 kts 82°
2026-05-06 14:40 14.60670 119.65161 31337 ft 497 kts 82°
2026-05-06 14:40 14.61179 119.68694 30560 ft 499 kts 82°
2026-05-06 14:40 14.61647 119.72241 29768 ft 499 kts 86°
2026-05-06 14:41 14.61765 119.75826 28793 ft 500 kts 89°
2026-05-06 14:41 14.61797 119.79369 27974 ft 500 kts 91°
2026-05-06 14:41 14.61752 119.82979 27344 ft 494 kts 91°
2026-05-06 14:41 14.61675 119.86445 26304 ft 483 kts 92°
2026-05-06 14:42 14.61586 119.89876 25048 ft 474 kts 92°
2026-05-06 14:42 14.61494 119.93293 23846 ft 466 kts 91°
2026-05-06 14:42 14.61398 119.96556 22611 ft 456 kts 91°
2026-05-06 14:42 14.61294 119.99831 21321 ft 446 kts 92°
2026-05-06 14:43 14.61190 120.02995 20082 ft 436 kts 91°
2026-05-06 14:43 14.61084 120.06084 18900 ft 426 kts 91°
2026-05-06 14:43 14.61011 120.08098 18150 ft 419 kts 92°
2026-05-06 14:43 14.60903 120.11070 17076 ft 407 kts 91°
2026-05-06 14:44 14.60764 120.14782 16433 ft 374 kts 91°
2026-05-06 14:44 14.60696 120.16555 16051 ft 361 kts 92°
2026-05-06 14:44 14.60565 120.19958 14508 ft 361 kts 91°
2026-05-06 14:45 14.60366 120.25230 11563 ft 376 kts 92°
2026-05-06 14:45 14.60300 120.27069 10903 ft 381 kts 91°
2026-05-06 14:45 14.60204 120.29785 10321 ft 375 kts 91°
2026-05-06 14:45 14.60084 120.33250 9961 ft 355 kts 91°
2026-05-06 14:46 14.59997 120.35739 9731 ft 340 kts 92°
2026-05-06 14:46 14.59941 120.37363 9559 ft 330 kts 91°
2026-05-06 14:46 14.59859 120.39686 9352 ft 317 kts 92°
2026-05-06 14:46 14.59774 120.41916 9148 ft 304 kts 91°
2026-05-06 14:47 14.59683 120.44050 8974 ft 292 kts 91°
2026-05-06 14:47 14.59594 120.46110 8756 ft 283 kts 91°
2026-05-06 14:47 14.59508 120.48126 8423 ft 279 kts 91°
2026-05-06 14:47 14.59421 120.50093 8071 ft 277 kts 92°
2026-05-06 14:48 14.59312 120.52100 7678 ft 276 kts 97°
2026-05-06 14:48 14.58652 120.53920 7315 ft 277 kts 123°
2026-05-06 14:48 14.57773 120.54909 7096 ft 278 kts 139°
2026-05-06 14:48 14.55633 120.56371 6987 ft 280 kts 147°
2026-05-06 14:49 14.53958 120.57395 6959 ft 280 kts 147°
2026-05-06 14:49 14.52275 120.58416 6654 ft 282 kts 147°
2026-05-06 14:49 14.50591 120.59442 6327 ft 280 kts 147°
2026-05-06 14:49 14.48925 120.60457 6042 ft 276 kts 147°
2026-05-06 14:50 14.47272 120.61463 5976 ft 276 kts 147°
2026-05-06 14:50 14.45613 120.62463 5972 ft 277 kts 147°
2026-05-06 14:50 14.43856 120.63273 5949 ft 280 kts 165°
2026-05-06 14:50 14.41899 120.63306 5545 ft 287 kts 191°
2026-05-06 14:51 14.40101 120.62440 5179 ft 288 kts 217°
2026-05-06 14:51 14.38781 120.60910 4996 ft 285 kts 234°
2026-05-06 14:51 14.37697 120.59191 4961 ft 286 kts 237°
2026-05-06 14:51 14.36644 120.57449 4979 ft 286 kts 237°
2026-05-06 14:52 14.35593 120.55703 4964 ft 287 kts 237°
2026-05-06 14:52 14.34542 120.53954 4968 ft 287 kts 237°
2026-05-06 14:52 14.33396 120.52278 4964 ft 285 kts 223°
2026-05-06 14:52 14.31750 120.51194 4970 ft 280 kts 197°
2026-05-06 14:53 14.29847 120.50981 4965 ft 275 kts 169°
2026-05-06 14:53 14.28054 120.51596 4969 ft 271 kts 151°
2026-05-06 14:53 14.26394 120.52522 4966 ft 272 kts 148°
2026-05-06 14:53 14.24865 120.53638 4963 ft 264 kts 130°
2026-05-06 14:54 14.24018 120.55204 4961 ft 244 kts 102°
2026-05-06 14:54 14.24048 120.56871 4960 ft 228 kts 72°
2026-05-06 14:54 14.24718 120.58297 4982 ft 221 kts 59°
2026-05-06 14:54 14.25549 120.59629 4966 ft 221 kts 57°
2026-05-06 14:55 14.26400 120.60951 4965 ft 221 kts 57°
2026-05-06 14:55 14.27249 120.62267 4966 ft 221 kts 57°
2026-05-06 14:55 14.28097 120.63591 4985 ft 222 kts 58°
2026-05-06 14:55 14.28944 120.64922 4969 ft 222 kts 58°
2026-05-06 14:56 14.29790 120.66252 4965 ft 222 kts 57°
2026-05-06 14:56 14.30636 120.67583 4910 ft 222 kts 58°
2026-05-06 14:56 14.31486 120.68920 4648 ft 223 kts 58°
2026-05-06 14:56 14.32360 120.70227 4396 ft 221 kts 51°
2026-05-06 14:57 14.33405 120.71380 4142 ft 220 kts 48°
2026-05-06 14:57 14.34366 120.72600 3876 ft 219 kts 56°
2026-05-06 14:57 14.35190 120.73930 3527 ft 222 kts 61°
2026-05-06 14:57 14.35957 120.75291 3381 ft 216 kts 62°
2026-05-06 14:58 14.36690 120.76611 3261 ft 209 kts 62°
2026-05-06 14:58 14.37400 120.77899 3135 ft 205 kts 63°
2026-05-06 14:58 14.38104 120.79181 3019 ft 205 kts 62°
2026-05-06 14:58 14.38808 120.80457 2973 ft 205 kts 62°
2026-05-06 14:59 14.39517 120.81729 2961 ft 205 kts 62°
2026-05-06 14:59 14.40231 120.83000 2801 ft 204 kts 62°
2026-05-06 14:59 14.40940 120.84258 2736 ft 202 kts 62°
2026-05-06 14:59 14.41648 120.85513 2652 ft 203 kts 61°
2026-05-06 15:00 14.42356 120.86772 2523 ft 203 kts 62°
2026-05-06 15:00 14.43055 120.88020 2466 ft 199 kts 62°
2026-05-06 15:00 14.43723 120.89212 2400 ft 186 kts 62°
2026-05-06 15:00 14.44368 120.90368 2154 ft 185 kts 61°
2026-05-06 15:01 14.45002 120.91499 1899 ft 179 kts 61°
2026-05-06 15:01 14.45602 120.92568 1663 ft 168 kts 63°
2026-05-06 15:01 14.46155 120.93555 1449 ft 151 kts 63°
2026-05-06 15:01 14.46654 120.94446 1298 ft 136 kts 64°
2026-05-06 15:02 14.47119 120.95277 1127 ft 133 kts 63°
2026-05-06 15:02 14.47577 120.96097 977 ft 132 kts 61°
2026-05-06 15:02 14.48036 120.96915 813 ft 132 kts 62°
2026-05-06 15:02 14.48495 120.97735 650 ft 132 kts 63°
2026-05-06 15:03 14.48950 120.98549 473 ft 131 kts 62°
2026-05-06 15:03 14.49413 120.99373 331 ft 134 kts 62°
2026-05-06 15:03 14.49876 121.00195 138 ft 130 kts 60°
2026-05-06 15:03 14.50294 121.00946 47 ft 108 kts 64°
2026-05-06 15:04 14.50621 121.01564 50 ft 101 kts 60°
2026-05-06 15:04 14.51041 121.02345 398 ft 145 kts 63°
2026-05-06 15:04 14.51602 121.03369 1021 ft 183 kts 61°
2026-05-06 15:04 14.52330 121.04624 1681 ft 224 kts 59°
2026-05-06 15:05 14.53084 121.06189 2169 ft 264 kts 73°
2026-05-06 15:05 14.53221 121.08080 2347 ft 254 kts 99°
2026-05-06 15:05 14.52531 121.09729 2176 ft 258 kts 127°
2026-05-06 15:05 14.51223 121.10924 1932 ft 244 kts 144°
2026-05-06 15:06 14.49839 121.11823 1724 ft 226 kts 147°
2026-05-06 15:06 14.48549 121.12622 1739 ft 209 kts 147°
2026-05-06 15:06 14.47307 121.13390 2096 ft 211 kts 147°
2026-05-06 15:06 14.46028 121.14170 2785 ft 215 kts 147°
2026-05-06 15:07 14.44703 121.14882 3459 ft 217 kts 161°
2026-05-06 15:07 14.43206 121.14928 3859 ft 221 kts 194°
2026-05-06 15:07 14.41878 121.14140 3987 ft 224 kts 225°
2026-05-06 15:07 14.40909 121.12879 3993 ft 225 kts 236°
2026-05-06 15:08 14.40050 121.11525 3990 ft 227 kts 236°
2026-05-06 15:08 14.39220 121.10122 3991 ft 230 kts 237°
2026-05-06 15:08 14.38391 121.08699 3993 ft 232 kts 237°
2026-05-06 15:08 14.37567 121.07273 3921 ft 232 kts 237°
2026-05-06 15:09 14.36742 121.05840 3574 ft 230 kts 237°
2026-05-06 15:09 14.35940 121.04436 3493 ft 232 kts 237°
2026-05-06 15:09 14.35134 121.02997 3491 ft 232 kts 237°
2026-05-06 15:09 14.34317 121.01541 3487 ft 232 kts 237°
2026-05-06 15:10 14.33517 121.00126 3488 ft 231 kts 237°
2026-05-06 15:10 14.32706 120.98690 3487 ft 232 kts 237°
2026-05-06 15:10 14.31884 120.97224 3486 ft 233 kts 237°
2026-05-06 15:10 14.31088 120.95799 3485 ft 232 kts 242°
2026-05-06 15:11 14.30718 120.94176 3355 ft 232 kts 273°
2026-05-06 15:11 14.31177 120.92600 2816 ft 232 kts 307°
2026-05-06 15:11 14.32258 120.91445 2532 ft 225 kts 324°
2026-05-06 15:11 14.33496 120.90463 2472 ft 225 kts 327°
2026-05-06 15:12 14.34752 120.89505 2472 ft 225 kts 327°
2026-05-06 15:12 14.36010 120.88553 2473 ft 224 kts 327°
2026-05-06 15:12 14.37268 120.87609 2477 ft 223 kts 327°
2026-05-06 15:12 14.38562 120.86747 2462 ft 219 kts 342°
2026-05-06 15:13 14.40015 120.86388 2465 ft 213 kts
2026-05-06 15:13 14.41435 120.86656 2470 ft 207 kts 25°
2026-05-06 15:13 14.42608 120.87455 2473 ft 201 kts 45°
2026-05-06 15:13 14.43461 120.88571 2462 ft 198 kts 64°
2026-05-06 15:14 14.44082 120.89842 2269 ft 201 kts 63°
2026-05-06 15:14 14.44774 120.91107 1997 ft 203 kts 60°
2026-05-06 15:14 14.45490 120.92363 1747 ft 201 kts 61°
2026-05-06 15:14 14.46183 120.93607 1460 ft 200 kts 62°
2026-05-06 15:15 14.46883 120.94859 1233 ft 202 kts 62°
2026-05-06 15:15 14.47576 120.96095 977 ft 193 kts 61°
2026-05-06 15:15 14.48222 120.97247 736 ft 178 kts 61°
2026-05-06 15:15 14.48819 120.98313 536 ft 165 kts 61°
2026-05-06 15:16 14.49385 120.99294 280 ft 155 kts 62°
2026-05-06 15:16 14.49899 121.00199 96 ft 137 kts 63°
2026-05-06 15:16 14.50312 121.00978 48 ft 98 kts 60°
2026-05-06 15:16 14.50513 121.01350 50 ft 37 kts 60°
2026-05-06 15:17 14.50644 121.01578 50 ft 36 kts 55°
2026-05-06 15:17 14.50811 121.01756 51 ft 32 kts 37°
2026-05-06 15:17 14.50878 121.01780 53 ft 0 kts 348°
2026-05-06 15:18 14.50881 121.01778 54 ft 3 kts 340°
2026-05-06 15:18 14.50888 121.01773 51 ft 1 kts 329°
2026-05-06 15:18 14.50991 121.01701 52 ft 19 kts 319°
2026-05-06 15:18 14.51001 121.01691 54 ft 0 kts 315°
2026-05-06 15:19 14.51005 121.01686 55 ft 3 kts 309°
2026-05-06 15:19 14.51031 121.01650 53 ft 10 kts 308°
2026-05-06 15:20 14.51083 121.01590 53 ft 12 kts 314°
2026-05-06 15:20 14.51086 121.01587 52 ft 1 kts 314°
2026-05-06 15:20 14.51170 121.01497 51 ft 34 kts 315°
2026-05-06 15:20 14.51246 121.01421 52 ft 1 kts 313°
2026-05-06 15:21 14.51248 121.01419 53 ft 1 kts 315°
2026-05-06 15:21 14.51273 121.01413 50 ft 0 kts 53°
2026-05-06 15:21 14.51293 121.01440 48 ft 15 kts 52°
2026-05-06 15:21 14.51370 121.01536 49 ft 17 kts 48°
2026-05-06 15:22 14.51399 121.01566 49 ft 0 kts 45°
2026-05-06 15:23 14.51400 121.01567 49 ft 1 kts 42°
2026-05-06 15:23 14.51404 121.01571 51 ft 2 kts 39°
2026-05-06 15:23 14.51416 121.01577 51 ft 3 kts 26°
2026-05-06 15:24 14.51430 121.01580 51 ft 5 kts
2026-05-06 15:24 14.51547 121.01547 48 ft 21 kts 320°
2026-05-06 15:24 14.51621 121.01428 52 ft 21 kts 304°
2026-05-06 15:25 14.51693 121.01369 49 ft 2 kts
2026-05-06 15:25 14.51708 121.01380 48 ft 4 kts 34°
2026-05-06 15:25 14.51731 121.01402 48 ft 5 kts 45°
2026-05-06 15:25 14.51753 121.01424 50 ft 0 kts 43°